Погода в Каменке

Россия / Саратовская область     52°02′23″N   43°56′58″E
темп.,
°C
ветер,
м/с
пор.,
м/с
влажн.,
%
обл.,
%
осадки,
мм/ч
давл.,
гПа
погр.,
м
19 апреля, пн
пн1901:00+9св2385100 0.0 101848
04:00+9всв358897 0.3 1017171
07:00+9всв3680100 0.1 1017198
10:00+8всв5877100 0.3 1017520
13:00+8в7981100 0.1 1018613
16:00+8в51185100 0.2 1018653
19:00+8в61284100 0.0 1018803
22:00+7в61192100 0.8 1018710
20 апреля, вт
вт2001:00+5в71191100 0.9 1018572
04:00+4в71292100 1.6 1018546
07:00+4в81392100 0.7 1018545
10:00+4вюв81591100 1.3 1019608
13:00+4вюв91789100 0.4 1019652
16:00+5вюв101884100 0.4 1017748
19:00+6вюв122183100 0.9 1014796
22:00+6вюв132590100 5.1 1012853
21 апреля, ср
ср2101:00+7юв132492100 4.6 1010859
04:00+7юв122289100 5.3 1010851
07:00+8юв111993100 0.1 1010865
10:00+8ююв10169296 1.4 1011965
13:00+9ю81287100 0.2 1013972
16:00+11зюз6876100 0.6 1014914
19:00+10ююз4877100 0.0 1017435
22:00+8ю358592 0.1 101888
22 апреля, чт
чт2201:00+7ююв3694100 0.5 1018211
04:00+8ююв2499100 7.5 1018214
07:00+7ю389618 1.7 1020279
10:00+11юз67700 1.7 1021934
13:00+13зюз68515 0.0 10211870
16:00+15зюз564332 0.0 10222069
19:00+14юз22555 0.0 102350
22:00+11ююв335989 0.0 102425
23 апреля, пт
пт2301:00+10ю227278 0.0 102425
04:00+8ю338171 0.0 102427
07:00+8ююв348075 0.0 102489
10:00+14ююв455941 0.0 1024655
13:00+16ю4544100 0.3 10232311
16:00+15ю3456100 0.3 10221535
19:00+14юв356011 0.0 1021169
22:00+10ююв348262 0.8 102162